Weather History for Meacham, OR

Change the Weather History Date:

Monday, February 25, 2013

  Actual Average Record
Temperature  
Mean Temperature 32 °F -  
Max Temperature 35 °F 37 °F 52 °F (2005)
Min Temperature 28 °F 17 °F -15 °F (2011)
Degree Days  
Heating Degree Days 34    
Moisture  
Dew Point 25 °F    
Average Humidity 79    
Maximum Humidity 93    
Minimum Humidity 57    
Precipitation  
Precipitation 0.19 in - - ()
Sea Level Pressure  
Sea Level Pressure 30.05 in    
Wind  
Wind Speed 3 mph (West)    
Max Wind Speed 9 mph    
Max Gust Speed 16 mph    
Visibility 6 miles    
Events Fog , Rain , Snow    
Averages and records for this station are not official NWS values.
T = Trace of Precipitation, MM = Missing Value Source: NWS Daily Summary

Daily Weather History Graph

Daily Weather History Graph

Search for Another Location

Airport:

Trip Planner

Search our weather history database for the weather conditions in past years. The results will help you decide how hot, cold, wet, or windy it might be!

Date:

Astronomy

Feb. 25, 2013 Rise Set
Actual Time 6:38 AM PST 5:35 PM PST
Civil Twilight 6:08 AM PST 6:05 PM PST
Nautical Twilight 5:34 AM PST 6:39 PM PST
Astronomical Twilight 5:00 AM PST 7:14 PM PST
Moon 5:57 PM PST (2/25) 6:09 AM PST (2/25)
Length of Visible Light 11h 56m
Length of Day
10h 57m
Full, 100% of the Moon is Illuminated
Feb 25
Full
Feb 25
Full
Mar 4
Last Quarter
Mar 11
New
Mar 19
First Quarter

Hourly Weather History & Observations

Time (PST) Temp. Windchill Dew Point Humidity Pressure Visibility Wind Dir Wind Speed Gust Speed Precip Events Conditions
12:56 AM 28.0 °F 24.2 °F 21.0 °F 75% 30.08 in 10.0 mi Variable 3.5 mph - N/A   Clear
1:56 AM 28.0 °F - 21.0 °F 75% 30.04 in 10.0 mi Calm Calm - N/A   Clear
2:56 AM 30.0 °F - 21.9 °F 72% 30.03 in 10.0 mi Calm Calm - N/A   Overcast
3:45 AM 28.4 °F - 23.0 °F 80% 29.96 in 2.0 mi Calm Calm - 0.00 in Snow Light Snow
3:52 AM 28.0 °F - 24.1 °F 85% 30.02 in 0.8 mi Calm Calm - 0.01 in Snow Light Snow
4:02 AM 28.4 °F - 24.8 °F 86% 29.95 in 0.5 mi Calm Calm - 0.02 in Fog , Snow Snow
4:10 AM 28.4 °F - 26.6 °F 93% 29.95 in 0.5 mi Calm Calm - 0.03 in Fog , Snow Snow
4:48 AM 28.4 °F - 26.6 °F 93% 29.93 in 1.0 mi Calm Calm - 0.08 in Snow Light Snow
4:56 AM 28.9 °F - 26.1 °F 89% 30.01 in 1.5 mi Calm Calm - 0.09 in Snow Light Snow
5:15 AM 28.4 °F - 26.6 °F 93% 29.94 in 0.5 mi Calm Calm - 0.01 in Fog , Snow Snow
5:28 AM 28.4 °F - 26.6 °F 93% 29.94 in 0.5 mi Calm Calm - 0.04 in Fog , Snow Snow
5:46 AM 28.4 °F - 26.6 °F 93% 29.95 in 1.5 mi Calm Calm - 0.06 in Snow Light Snow
5:58 AM 28.4 °F - 26.6 °F 93% 29.95 in 0.8 mi Calm Calm - 0.00 in Snow Light Snow
6:15 AM 28.4 °F - 26.6 °F 93% 29.95 in 1.0 mi Calm Calm - 0.03 in Snow Light Snow
6:21 AM 28.4 °F - 26.6 °F 93% 29.95 in 0.8 mi Calm Calm - 0.03 in Snow Light Snow
6:59 AM 32.0 °F - 30.2 °F 93% 29.96 in 1.2 mi Calm Calm - 0.00 in Snow Light Snow
7:04 AM 32.0 °F - 30.2 °F 93% 29.95 in 3.0 mi Calm Calm - 0.00 in Snow Light Snow
7:56 AM 34.0 °F 31.0 °F 28.9 °F 82% 30.05 in 10.0 mi Variable 3.5 mph - 0.00 in   Overcast
8:56 AM 33.1 °F 26.9 °F 28.0 °F 82% 30.07 in 10.0 mi Variable 6.9 mph - N/A   Overcast
9:52 AM 33.8 °F 29.6 °F 26.6 °F 75% 30.00 in 10.0 mi Variable 4.6 mph - N/A   Overcast
9:56 AM 34.0 °F 31.0 °F 27.0 °F 75% 30.08 in 10.0 mi Variable 3.5 mph - N/A   Overcast
10:56 AM 35.1 °F 30.1 °F 26.1 °F 70% 30.08 in 10.0 mi Variable 5.8 mph - N/A   Overcast
11:56 AM 35.1 °F 28.6 °F 25.0 °F 67% 30.08 in 10.0 mi West 8.1 mph - 0.00 in   Overcast
12:56 PM 34.0 °F 28.0 °F 26.1 °F 73% 30.08 in 2.0 mi Variable 6.9 mph - 0.02 in Snow Light Snow
1:11 PM 33.8 °F 26.4 °F 26.6 °F 75% 30.01 in 1.0 mi West 9.2 mph - 0.01 in Snow Light Snow
1:20 PM 35.6 °F 30.7 °F 24.8 °F 65% 30.00 in 3.0 mi West 5.8 mph - 0.07 in Rain Light Rain
1:56 PM 35.1 °F 29.3 °F 25.0 °F 67% 30.08 in 9.0 mi Variable 6.9 mph - 0.07 in   Overcast
2:56 PM 35.1 °F 30.1 °F 27.0 °F 72% 30.08 in 10.0 mi Variable 5.8 mph - 0.00 in   Overcast
3:12 PM 35.6 °F 28.6 °F 26.6 °F 70% 30.01 in 9.0 mi WNW 9.2 mph - 0.00 in   Mostly Cloudy
3:19 PM 35.6 °F 30.7 °F 24.8 °F 65% 30.02 in 10.0 mi Variable 5.8 mph - 0.00 in   Mostly Cloudy
3:56 PM 35.1 °F 31.0 °F 21.0 °F 57% 30.09 in 10.0 mi Variable 4.6 mph 16.1 mph 0.00 in   Mostly Cloudy
4:56 PM 33.1 °F 26.1 °F 23.0 °F 66% 30.11 in 10.0 mi West 8.1 mph - N/A   Mostly Cloudy
5:56 PM 32.0 °F 28.7 °F 24.1 °F 73% 30.13 in 10.0 mi Variable 3.5 mph - N/A   Overcast
6:56 PM 30.0 °F 24.1 °F 21.9 °F 72% 30.16 in 10.0 mi Variable 5.8 mph - N/A   Mostly Cloudy
7:27 PM 28.4 °F 22.2 °F 21.2 °F 74% 30.09 in 10.0 mi Variable 5.8 mph - N/A   Mostly Cloudy
7:35 PM 28.4 °F 22.2 °F 21.2 °F 74% 30.09 in 10.0 mi Variable 5.8 mph - N/A   Scattered Clouds
7:56 PM 28.9 °F - 21.9 °F 75% 30.18 in 10.0 mi Calm Calm - N/A   Mostly Cloudy
8:56 PM 28.9 °F 22.8 °F 21.9 °F 75% 30.19 in 10.0 mi Variable 5.8 mph - N/A   Mostly Cloudy
9:56 PM 28.0 °F 21.7 °F 21.0 °F 75% 30.21 in 10.0 mi Variable 5.8 mph - N/A   Overcast
10:56 PM 28.0 °F 20.8 °F 21.0 °F 75% 30.23 in 10.0 mi Variable 6.9 mph - N/A   Overcast
11:56 PM 28.0 °F 21.7 °F 21.9 °F 78% 30.23 in 10.0 mi Variable 5.8 mph - N/A   Overcast